XMM-NEWTON

Last updated on Thu Dec 18 2025 00:03:35 GMT+0000 (Coordinated Universal Time)

1 25989U 99066A 25352.84950202 .00000081 00000+0 00000+0 0 9997 2 25989 65.4033 285.3699 4740231 68.0474 0.2178 0.50133546 22108
UTC large
Height (km)
Speed (km/s)
/
Latitude / Longitude
Inclination (degrees)
Orbital Period (minutes)
Azimuth
Elevation
Range (km)
Doppler Factor

Next 0 passes for location: London (51.5072 / 0.1276)

Sorry there are no passes over London.